Weather History for KAIA - January, 2013

Change the Weather History Date:

Sunday, January 6, 2013

  Actual Average Record
Temperature  
Mean Temperature 22 °F 24 °F  
Max Temperature 44 °F 38 °F 63 °F (1954)
Min Temperature 0 °F 9 °F -29 °F (2004)
Degree Days  
Heating Degree Days 43 41  
Month to date heating degree days 269 249  
Since 1 July heating degree days 3073 3331  
Cooling Degree Days 0 0  
Month to date cooling degree days 0 0  
Year to date cooling degree days 0 0  
Moisture  
Dew Point 12 °F    
Average Humidity 61    
Maximum Humidity 88    
Minimum Humidity 34    
Precipitation  
Precipitation 0.00 in 0.00 in 0.41 in (1969)
Month to date precipitation T 0.03  
Year to date precipitation T 0.03  
Sea Level Pressure  
Sea Level Pressure 30.16 in    
Wind  
Wind Speed 8 mph (SSW)    
Max Wind Speed 21 mph    
Max Gust Speed 24 mph    
Visibility 10 miles    
Events      
T = Trace of Precipitation, MM = Missing Value Source: NWS Daily Summary

Daily Weather History Graph

Daily Weather History Graph

Search for Another Location

Airport or City:

Trip Planner

Search our weather history database for the weather conditions in past years. The results will help you decide how hot, cold, wet, or windy it might be!

Date:

Astronomy

Jan. 06, 2013 Rise Set
Actual Time 7:19 AM MST 4:35 PM MST
Civil Twilight 6:48 AM MST 5:06 PM MST
Nautical Twilight 6:13 AM MST 5:41 PM MST
Astronomical Twilight 5:39 AM MST 6:15 PM MST
Moon 1:34 AM MST (1/6) 12:05 PM MST (1/6)
Length of Visible Light 10h 18m
Length of Day
9h 15m
Waning Crescent, 32% of the Moon is Illuminated
Jan 6
Waning Crescent
Jan 11
New
Jan 18
First Quarter
Jan 26
Full
Feb 3
Last Quarter

Hourly Weather History & Observations

Time (MST) Temp. Windchill Dew Point Humidity Pressure Visibility Wind Dir Wind Speed Gust Speed Precip Events Conditions
12:53 AM 8.1 °F -0.5 °F 3.0 °F 80% 30.33 in 10.0 mi WSW 4.6 mph - N/A   Clear
1:53 AM 7.0 °F 0.1 °F 3.0 °F 84% 30.33 in 10.0 mi SW 3.5 mph - N/A   Clear
2:53 AM 3.9 °F -9.4 °F -0.0 °F 84% 30.34 in 10.0 mi WSW 8.1 mph - N/A   Clear
3:53 AM 3.9 °F -9.4 °F -0.0 °F 84% 30.33 in 10.0 mi West 8.1 mph - N/A   Clear
4:53 AM 3.9 °F -5.3 °F -0.0 °F 84% 30.34 in 10.0 mi SW 4.6 mph - N/A   Clear
5:53 AM 5.0 °F - 1.0 °F 84% 30.33 in 10.0 mi Calm Calm - N/A   Clear
6:53 AM 1.0 °F - -2.9 °F 83% 30.33 in 10.0 mi Calm Calm - N/A   Clear
7:53 AM 3.9 °F -8.2 °F -2.0 °F 76% 30.31 in 10.0 mi SSE 6.9 mph - N/A   Clear
8:53 AM 15.8 °F 8.6 °F 10.4 °F 79% 30.13 in 10.0 mi SSE 4.6 mph - N/A   Clear
9:53 AM 27.0 °F 19.5 °F 14.0 °F 58% 30.25 in 10.0 mi South 6.9 mph - N/A   Clear
10:53 AM 37.9 °F 29.6 °F 16.0 °F 41% 30.19 in 10.0 mi SSW 13.8 mph - N/A   Clear
11:53 AM 41.0 °F 32.2 °F 15.1 °F 35% 30.14 in 10.0 mi SSW 18.4 mph - N/A   Clear
12:53 PM 42.1 °F 34.5 °F 18.0 °F 38% 30.11 in 10.0 mi South 15.0 mph - N/A   Clear
1:53 PM 43.0 °F 35.4 °F 19.9 °F 40% 30.07 in 10.0 mi SSW 16.1 mph 23.0 mph N/A   Clear
2:53 PM 41.0 °F 34.7 °F 23.0 °F 49% 30.06 in 10.0 mi South 10.4 mph - N/A   Clear
3:53 PM 36.0 °F 29.0 °F 25.0 °F 64% 30.07 in 10.0 mi South 9.2 mph - N/A   Clear
4:53 PM 28.9 °F 18.2 °F 21.9 °F 75% 30.07 in 10.0 mi SSE 13.8 mph - N/A   Clear
5:53 PM 27.0 °F 21.6 °F 21.0 °F 78% 30.07 in 10.0 mi South 4.6 mph - N/A   Clear
6:53 PM 25.0 °F 17.1 °F 18.0 °F 75% 30.09 in 10.0 mi South 6.9 mph - N/A   Clear
7:53 PM 19.0 °F 8.2 °F 16.0 °F 88% 30.08 in 10.0 mi South 9.2 mph - N/A   Clear
8:53 PM 19.9 °F - 16.0 °F 85% 30.03 in 10.0 mi Calm Calm - N/A   Clear
9:53 PM 18.0 °F 12.7 °F 14.0 °F 84% 29.99 in 10.0 mi SW 3.5 mph - N/A   Clear
10:53 PM 17.1 °F 6.6 °F 12.9 °F 84% 29.96 in 10.0 mi West 8.1 mph - N/A   Clear
11:53 PM 19.0 °F 8.2 °F 12.9 °F 77% 29.94 in 10.0 mi NNE 9.2 mph 16.1 mph N/A   Clear